Location: LDNL
(36.4545°S, 141.6685°E)
Time: 16:00:38
(UTC+10:00)

Courier 1B - Pass Details

Date: 08 August 2022
Orbit: 962 x 1209 km, 28.3° (Epoch: 25 September)

Event Time Altitude Azimuth Distance (km) Brightness Sun altitude
Exits shadow 06:54:49 - 279° (W) 3,658 9.9 -6.5°
Reaches altitude 10° 06:57:09 10° 290° (WNW) 3,053 9.6 -6.0°
Maximum altitude 07:02:16 20° 333° (NNW) 2,340 9.4 -5.1°
Drops below altitude 10° 07:07:11 10° 17° (NNE) 2,917 10.5 -4.1°
Sets 07:10:40 0° 33° (NNE) 3,821 11.5 -3.4°
